星链-5906 (STARLINK-5906 )

导读 | 豆包AI

STARLINK-5906是美国太空探索技术公司(SpaceX)星链互联网卫星星座的一员,于2023年3月17日发射升空,属于星链批次生产部署中的卫星。星链项目旨在构建全球卫星互联网星座,该卫星入轨后,参与为全球提供低延迟、高速率的宽带互联网覆盖服务,推进星链星座的组网进程。

Basic Information
目录编号:
55962
目录名称:
STARLINK-5906
国际标识:
2023-037BA
轨道中心:
EARTH
卫星名称:
星链-5906
卫星全名:
星链-5906 (STARLINK-5906 )
卫星状态:
在轨 (已飞行1094 天)
发射日期:
2023-03-17 UTC
国别 :
美国 (US)
星等 :
--
Orbit Information
数据来源 国际轨道数据 AOE轨道数据
星历时间 2026-03-15T12:33:38+0800
13小时前
查看轨道信息
2026-03-12T02:00:00+0800
4天前
查看轨道信息
半长轴 6950.187km 6950.171km
偏心率 0.0002823 0.0002823
轨道倾角 69.999° 69.997°
近地点辐角 274.184° 262.738°
升交点赤经 250.717° 259.390°
平近点角 85.899° 267.181°
近地点 570.087km 570.071km
远地点 574.013km 573.997km
周期 96.107分钟 96.107分钟
每日圈数 14.983322 14.983374
Detailed Information
固有亮度:
5
最大亮度:
2.5
卫星平台:
Starlink v1.5
覆盖范围:
全球
运营商:
太空探索技术公司
运营商所在国:
美国
制造商(研发单位):
太空探索技术公司
制造商所在国:
美国
使用方式:
暂无
Satellite Introduction
星链(Starlink)计划是由太空探索技术公司(SpaceX)提出的一个巨型低轨卫星互联网星座项目,计划在2019年至2024年间在太空搭建由约1.2万颗卫星组成的“星链”网络,其中1584颗将部署在地球上空550千米处的近地轨道,并从2020年开始工作。该卫星仍在工作。
2D Orbit Map
3D Orbit Map
Orbit Altitude Analysis Chart
Orbit Inclination Analysis Chart
Orbit Comprehensive Analysis Chart
View Comprehensive Chart